Weather History for Kearney, NE

Change the Weather History Date:

Tuesday, March 12, 2013

  Actual Average Record
Temperature  
Mean Temperature 32 °F 36 °F  
Max Temperature 43 °F 49 °F 78 °F (1916)
Min Temperature 21 °F 24 °F -17 °F (1998)
Degree Days  
Heating Degree Days 33 29  
Cooling Degree Days 0 0  
Moisture  
Dew Point 15 °F    
Average Humidity 50    
Maximum Humidity 78    
Minimum Humidity 22    
Precipitation  
Precipitation 0.00 in - 1.38 in (1977)
Sea Level Pressure  
Sea Level Pressure 30.20 in    
Wind  
Wind Speed 16 mph (NW)    
Max Wind Speed 29 mph    
Max Gust Speed 38 mph    
Visibility 10 miles    
Events      
T = Trace of Precipitation, MM = Missing Value Source: NWS Daily Summary

Daily Weather History Graph

Daily Weather History Graph

Search for Another Location

Airport:

Trip Planner

Search our weather history database for the weather conditions in past years. The results will help you decide how hot, cold, wet, or windy it might be!

Date:

Astronomy

Mar. 12, 2013 Rise Set
Actual Time 7:52 AM CDT 7:39 PM CDT
Civil Twilight 7:24 AM CDT 8:07 PM CDT
Nautical Twilight 6:53 AM CDT 8:38 PM CDT
Astronomical Twilight 6:21 AM CDT 9:11 PM CDT
Moon 7:58 AM CDT (3/12) 8:57 PM CDT (3/12)
Length of Visible Light 12h 42m
Length of Day
11h 47m
New Moon, 1% of the Moon is Illuminated
Mar 12
New Moon
Mar 19
First Quarter
Mar 27
Full
Apr 2
Last Quarter
Apr 10
New

Hourly Weather History & Observations

Time (CDT) Temp. Windchill Dew Point Humidity Pressure Visibility Wind Dir Wind Speed Gust Speed Precip Events Conditions
12:15 AM 33.8 °F 28.6 °F 28.4 °F 81% 30.06 in 10.0 mi NW 5.8 mph - N/A   Clear
12:35 AM 33.8 °F 28.6 °F 26.6 °F 75% 30.06 in 10.0 mi WNW 5.8 mph - N/A   Clear
12:55 AM 30.2 °F 23.4 °F 24.8 °F 80% 30.06 in 10.0 mi WNW 6.9 mph - N/A   Clear
1:15 AM 30.2 °F 23.4 °F 26.6 °F 86% 30.06 in 10.0 mi NW 6.9 mph - N/A   Clear
1:35 AM 30.2 °F 23.4 °F 24.8 °F 80% 30.07 in 10.0 mi WNW 6.9 mph - N/A   Scattered Clouds
1:55 AM 30.2 °F 22.6 °F 24.8 °F 80% 30.07 in 10.0 mi WNW 8.1 mph - N/A   Mostly Cloudy
2:15 AM 30.2 °F 22.6 °F 26.6 °F 86% 30.09 in 10.0 mi WNW 8.1 mph - N/A   Scattered Clouds
2:35 AM 30.2 °F 21.9 °F 24.8 °F 80% 30.09 in 10.0 mi WNW 9.2 mph - N/A   Mostly Cloudy
2:55 AM 32.0 °F 25.6 °F 26.6 °F 80% 30.09 in 10.0 mi NW 6.9 mph - N/A   Mostly Cloudy
3:15 AM 33.8 °F 27.7 °F 26.6 °F 75% 30.09 in 10.0 mi WNW 6.9 mph - N/A   Mostly Cloudy
3:35 AM 33.8 °F 27.0 °F 26.6 °F 75% 30.09 in 10.0 mi WNW 8.1 mph - N/A   Partly Cloudy
3:55 AM 33.8 °F 26.4 °F 24.8 °F 70% 30.09 in 10.0 mi WNW 9.2 mph - N/A   Clear
4:15 AM 33.8 °F 25.8 °F 24.8 °F 70% 30.10 in 10.0 mi WNW 10.4 mph - N/A   Clear
4:35 AM 33.8 °F 25.8 °F 24.8 °F 70% 30.10 in 10.0 mi WNW 10.4 mph - N/A   Scattered Clouds
4:55 AM 33.8 °F 26.4 °F 24.8 °F 70% 30.11 in 10.0 mi WNW 9.2 mph - N/A   Overcast
5:15 AM 33.8 °F 25.3 °F 24.8 °F 70% 30.12 in 10.0 mi WNW 11.5 mph - N/A   Overcast
5:35 AM 33.8 °F 24.3 °F 23.0 °F 65% 30.13 in 10.0 mi WNW 13.8 mph - N/A   Overcast
5:55 AM 33.8 °F 24.3 °F 21.2 °F 60% 30.14 in 10.0 mi WNW 13.8 mph - N/A   Mostly Cloudy
6:15 AM 33.8 °F 25.3 °F 21.2 °F 60% 30.15 in 10.0 mi WNW 11.5 mph - N/A   Mostly Cloudy
6:35 AM 32.0 °F 23.0 °F 21.2 °F 64% 30.15 in 10.0 mi WNW 11.5 mph - N/A   Mostly Cloudy
6:55 AM 33.8 °F 24.8 °F 19.4 °F 56% 30.16 in 10.0 mi WNW 12.7 mph - N/A   Overcast
7:15 AM 33.8 °F 23.5 °F 17.6 °F 52% 30.16 in 10.0 mi WNW 16.1 mph 19.6 mph N/A   Overcast
7:35 AM 32.0 °F 21.2 °F 15.8 °F 51% 30.17 in 10.0 mi WNW 16.1 mph 27.6 mph N/A   Mostly Cloudy
7:55 AM 30.2 °F 18.1 °F 15.8 °F 55% 30.17 in 10.0 mi NW 18.4 mph 26.5 mph N/A   Partly Cloudy
8:15 AM 30.2 °F 20.8 °F 15.8 °F 55% 30.18 in 10.0 mi NW 11.5 mph - N/A   Clear
8:35 AM 30.2 °F 21.3 °F 17.6 °F 60% 30.19 in 10.0 mi WNW 10.4 mph - N/A   Clear
8:55 AM 30.2 °F 18.5 °F 15.8 °F 55% 30.20 in 10.0 mi NW 17.3 mph - N/A   Clear
9:15 AM 32.0 °F 19.8 °F 15.8 °F 51% 30.21 in 10.0 mi NW 20.7 mph 26.5 mph N/A   Clear
9:35 AM 33.8 °F 22.2 °F 15.8 °F 48% 30.22 in 10.0 mi NW 20.7 mph 27.6 mph N/A   Clear
9:55 AM 33.8 °F 21.9 °F 12.2 °F 41% 30.22 in 10.0 mi WNW 21.9 mph 31.1 mph N/A   Clear
10:15 AM 35.6 °F 23.0 °F 12.2 °F 38% 30.22 in 10.0 mi WNW 27.6 mph 34.5 mph N/A   Clear
10:35 AM 35.6 °F 22.1 °F 10.4 °F 35% 30.23 in 10.0 mi NW 32.2 mph 39.1 mph N/A   Clear
10:55 AM 35.6 °F 24.2 °F 10.4 °F 35% 30.24 in 10.0 mi NW 21.9 mph 38.0 mph N/A   Clear
11:15 AM 37.4 °F 25.9 °F 10.4 °F 33% 30.24 in 10.0 mi WNW 25.3 mph 39.1 mph N/A   Clear
11:35 AM 37.4 °F 24.4 °F 10.4 °F 33% 30.24 in 10.0 mi NW 33.4 mph 41.4 mph N/A   Clear
11:55 AM 37.4 °F 25.9 °F 12.2 °F 36% 30.25 in 10.0 mi NW 25.3 mph 36.8 mph N/A   Clear
12:15 PM 37.4 °F 24.4 °F 12.2 °F 36% 30.24 in 10.0 mi NW 33.4 mph 42.6 mph N/A   Clear
12:35 PM 39.2 °F 27.8 °F 12.2 °F 33% 30.25 in 10.0 mi NW 27.6 mph 36.8 mph N/A   Clear
12:55 PM 39.2 °F 27.6 °F 12.2 °F 33% 30.25 in 10.0 mi NW 28.8 mph 36.8 mph N/A   Clear
1:15 PM 39.2 °F 27.8 °F 12.2 °F 33% 30.25 in 10.0 mi WNW 27.6 mph 36.8 mph N/A   Clear
1:35 PM 41.0 °F 30.0 °F 12.2 °F 31% 30.25 in 10.0 mi WNW 28.8 mph 35.7 mph N/A   Clear
1:55 PM 41.0 °F 30.7 °F 10.4 °F 29% 30.25 in 10.0 mi NW 25.3 mph 34.5 mph N/A   Clear
2:15 PM 41.0 °F 30.9 °F 8.6 °F 26% 30.25 in 10.0 mi NW 24.2 mph 35.7 mph N/A   Clear
2:35 PM 42.8 °F 32.9 °F 6.8 °F 23% 30.24 in 10.0 mi WNW 26.5 mph 40.3 mph N/A   Clear
2:55 PM 42.8 °F 32.7 °F 6.8 °F 23% 30.23 in 10.0 mi WNW 27.6 mph 34.5 mph N/A   Clear
3:15 PM 42.8 °F 32.5 °F 6.8 °F 23% 30.23 in 10.0 mi NW 28.8 mph 36.8 mph N/A   Clear
3:35 PM 42.8 °F 33.5 °F 5.0 °F 21% 30.23 in 10.0 mi NW 23.0 mph 36.8 mph N/A   Clear
3:55 PM 42.8 °F 32.9 °F 6.8 °F 23% 30.23 in 10.0 mi NW 26.5 mph 32.2 mph N/A   Clear
4:15 PM 42.8 °F 32.5 °F 6.8 °F 23% 30.23 in 10.0 mi NW 28.8 mph 39.1 mph N/A   Clear
4:35 PM 42.8 °F 32.9 °F 5.0 °F 21% 30.23 in 10.0 mi NW 26.5 mph 35.7 mph N/A   Clear
4:55 PM 42.8 °F 32.9 °F 6.8 °F 23% 30.24 in 10.0 mi NW 26.5 mph 35.7 mph N/A   Clear
5:15 PM 42.8 °F 33.1 °F 6.8 °F 23% 30.24 in 10.0 mi NW 25.3 mph 34.5 mph N/A   Clear
5:35 PM 42.8 °F 34.0 °F 6.8 °F 23% 30.24 in 10.0 mi NW 20.7 mph 34.5 mph N/A   Clear
5:55 PM 42.8 °F 33.8 °F 6.8 °F 23% 30.24 in 10.0 mi NW 21.9 mph 29.9 mph N/A   Clear
6:15 PM 41.0 °F 31.6 °F 6.8 °F 24% 30.25 in 10.0 mi NW 20.7 mph 32.2 mph N/A   Clear
6:35 PM 41.0 °F 32.2 °F 6.8 °F 24% 30.25 in 10.0 mi NW 18.4 mph 28.8 mph N/A   Clear
6:55 PM 39.2 °F 29.8 °F 8.6 °F 28% 30.25 in 10.0 mi NW 18.4 mph 26.5 mph N/A   Clear
7:15 PM 39.2 °F 30.5 °F 8.6 °F 28% 30.26 in 10.0 mi NW 16.1 mph 20.7 mph N/A   Clear
7:35 PM 37.4 °F 28.5 °F 8.6 °F 30% 30.26 in 10.0 mi NNW 15.0 mph - N/A   Clear
7:55 PM 35.6 °F 28.6 °F 8.6 °F 33% 30.27 in 10.0 mi NNW 9.2 mph - N/A   Clear
8:15 PM 33.8 °F 27.0 °F 8.6 °F 35% 30.27 in 10.0 mi NNW 8.1 mph - N/A   Clear
8:35 PM 33.8 °F 27.0 °F 10.4 °F 38% 30.28 in 10.0 mi NNW 8.1 mph - N/A   Clear
8:55 PM 28.4 °F 21.2 °F 8.6 °F 43% 30.28 in 10.0 mi North 6.9 mph - N/A   Clear
9:15 PM 28.4 °F 24.6 °F 10.4 °F 47% 30.29 in 10.0 mi NNE 3.5 mph - N/A   Clear
9:35 PM 28.4 °F - 10.4 °F 47% 30.29 in 10.0 mi Calm Calm - N/A   Clear
9:55 PM 28.4 °F 24.6 °F 10.4 °F 47% 30.30 in 6.0 mi WNW 3.5 mph - N/A   Clear
10:15 PM 28.4 °F 24.6 °F 10.4 °F 47% 30.31 in 10.0 mi WNW 3.5 mph - N/A   Clear
10:35 PM 28.4 °F 24.6 °F 10.4 °F 47% 30.32 in 10.0 mi West 3.5 mph - N/A   Clear
10:55 PM 28.4 °F - 10.4 °F 47% 30.32 in 10.0 mi Calm Calm - N/A   Clear
11:15 PM 28.4 °F 24.6 °F 10.4 °F 47% 30.32 in 10.0 mi WNW 3.5 mph - N/A   Clear
11:35 PM 28.4 °F 23.3 °F 10.4 °F 47% 30.32 in 10.0 mi WNW 4.6 mph - N/A   Clear
11:55 PM 26.6 °F 20.0 °F 12.2 °F 55% 30.32 in 10.0 mi WNW 5.8 mph - N/A   Clear